Stations météo

réclame
Mon MeteoGroup
Ciudad Real, Espagne (8348): Température de l'air & dewpoint: 18.10.2018 07:00:00 - 24.10.2018 07:00:00 (CEST)Ciudad Real, Espagne (8348): Vitesse du vent: 18.10.2018 07:00:00 - 24.10.2018 07:00:00 (CEST)Ciudad Real, Espagne (8348): Direction du vent: 18.10.2018 07:00:00 - 24.10.2018 07:00:00 (CEST)Ciudad Real, Espagne (8348): reduced air pressure: 18.10.2018 07:00:00 - 24.10.2018 07:00:00 (CEST)Ciudad Real, Espagne (8348): visibility: 18.10.2018 07:00:00 - 24.10.2018 07:00:00 (CEST)Ciudad Real, Espagne (8348): Quantités de précipitations: 18.10.2018 07:00:00 - 24.10.2018 07:00:00 (CEST)
Date & Time tt [°C] td [°C] ff [km/h] ff [knt] dd ppp [hPa] vv [km] rr [mm]
24.10.2018 07:00:00 - - - - - - - -
24.10.2018 06:00:00 10,6 9,2 4 2 NNE 1027,1 13 0,0
24.10.2018 05:00:00 11,0 9,3 4 2 E 1027,0 14 -
24.10.2018 04:00:00 11,8 9,7 2 1 SSE 1026,7 16 0,0
24.10.2018 03:00:00 12,5 9,9 2 1 S 1026,9 18 0,0
24.10.2018 02:00:00 13,1 10,1 4 2 NE 1026,8 19 -
24.10.2018 01:00:00 13,9 10,3 2 1 NNE 1026,6 20 0,0
24.10.2018 00:00:00 14,8 10,2 4 2 NNE 1026,4 20 0,0
23.10.2018 23:00:00 15,1 10,3 4 2 NNE 1026,2 20 -
23.10.2018 22:00:00 16,0 10,7 4 2 N 1025,4 19 0,0
23.10.2018 21:00:00 17,0 10,8 5 3 NNE 1024,9 17 0,0
23.10.2018 20:00:00 19,1 10,9 4 2 NNE 1023,8 20 -
23.10.2018 19:00:00 21,0 10,5 5 3 NNE 1022,9 20 0,0
23.10.2018 18:00:00 21,7 10,5 5 3 ENE 1022,9 20 0,0
23.10.2018 17:00:00 22,0 11,1 9 5 NE 1022,9 20 -
23.10.2018 16:00:00 22,5 11,9 8 4 ENE 1022,8 20 0,0
23.10.2018 15:00:00 22,4 11,5 5 3 ENE 1023,4 20 0,0
23.10.2018 14:00:00 21,4 12,3 5 3 ENE 1024,0 20 -
23.10.2018 13:00:00 19,7 12,7 8 4 E 1024,8 19 0,0
23.10.2018 12:00:00 17,7 13,2 4 2 E 1025,4 14 0,0
23.10.2018 11:00:00 15,1 13,0 5 3 ENE 1025,9 10 -
23.10.2018 10:00:00 12,8 12,0 5 3 E 1026,1 6 0,0
23.10.2018 09:00:00 12,5 11,7 5 3 ENE 1025,2 - 0,0
23.10.2018 08:00:00 12,4 11,6 8 4 ENE 1024,7 5 -
23.10.2018 07:00:00 12,5 11,4 9 5 ENE 1024,3 7 0,0
23.10.2018 06:00:00 13,1 11,7 8 4 ENE 1024,3 9 0,0
23.10.2018 05:00:00 13,5 11,9 9 5 ENE 1024,0 11 -
23.10.2018 04:00:00 13,8 11,8 9 5 ENE 1023,2 14 0,0
23.10.2018 03:00:00 14,2 12,2 8 4 ENE 1023,4 15 0,0
23.10.2018 02:00:00 14,4 11,5 8 4 NE 1023,2 19 -
23.10.2018 01:00:00 15,1 10,5 5 3 NE 1023,0 20 0,0
23.10.2018 00:00:00 16,2 9,8 4 2 NNE 1022,7 20 0,0
22.10.2018 23:00:00 16,8 10,9 2 1 NE 1022,0 20 -
22.10.2018 22:00:00 17,2 12,3 4 2 NNW 1021,3 19 0,0
22.10.2018 21:00:00 17,8 12,5 4 2 NNW 1020,8 19 0,0
22.10.2018 20:00:00 19,6 12,1 2 1 N 1019,9 20 -
22.10.2018 19:00:00 21,4 12,0 2 1 ENE 1019,1 20 0,0
22.10.2018 18:00:00 22,4 11,8 5 3 NE 1018,4 20 0,0
22.10.2018 17:00:00 23,0 12,0 8 4 ENE 1018,3 20 -
22.10.2018 16:00:00 23,2 12,2 9 5 E 1018,7 20 0,0
22.10.2018 15:00:00 23,0 13,5 5 3 ENE 1018,8 20 0,0
22.10.2018 14:00:00 22,1 13,4 8 4 E 1019,6 1,5 -
22.10.2018 13:00:00 20,0 13,9 8 4 E 1020,7 18 0,0
22.10.2018 12:00:00 18,1 13,6 5 3 E 1021,3 16 0,0
22.10.2018 11:00:00 16,0 13,3 5 3 E 1022,0 15 -
22.10.2018 10:00:00 13,2 11,6 4 2 ESE 1022,7 19 0,0
22.10.2018 09:00:00 12,1 10,5 2 1 SE 1022,2 19 0,0
22.10.2018 08:00:00 12,5 11,1 2 1 SE 1021,7 20 -
22.10.2018 07:00:00 13,2 11,4 4 2 SSE 1021,3 20 0,0
22.10.2018 06:00:00 13,8 11,8 2 1 SE 1020,9 19 0,0
22.10.2018 05:00:00 14,6 12,3 4 2 WNW 1020,7 20 -
22.10.2018 04:00:00 15,7 12,6 9 5 NW 1020,7 19 0,0
22.10.2018 03:00:00 16,1 13,6 5 3 NW 1021,0 16 0,0
22.10.2018 02:00:00 16,2 13,9 4 2 NW 1020,9 17 -
22.10.2018 01:00:00 16,0 13,7 4 2 NE 1020,8 15 0,0
22.10.2018 00:00:00 16,9 14,0 4 2 NNE 1020,1 18 0,0
21.10.2018 23:00:00 17,2 13,5 8 4 NNE 1019,4 20 -
21.10.2018 22:00:00 17,6 12,7 4 2 NNE 1019,0 20 0,0
21.10.2018 21:00:00 18,1 12,1 4 2 W 1018,9 20 0,0
21.10.2018 20:00:00 18,6 11,9 5 3 E 1018,3 19 -
21.10.2018 19:00:00 19,9 11,1 13 7 NE 1017,3 20 0,0
21.10.2018 18:00:00 21,6 11,0 15 8 ENE 1016,5 20 0,0
21.10.2018 17:00:00 23,0 12,6 8 4 SSE 1016,3 14 -
21.10.2018 16:00:00 23,8 11,8 5 3 ENE 1016,2 14 0,0
21.10.2018 15:00:00 24,7 12,0 11 6 ESE 1016,5 14 0,0
21.10.2018 14:00:00 22,9 13,1 9 5 ENE 1017,5 18 -
21.10.2018 13:00:00 20,6 14,5 13 7 ENE 1018,8 19 0,0
21.10.2018 12:00:00 18,2 14,1 11 6 ENE 1019,7 20 0,0
21.10.2018 11:00:00 17,2 14,5 9 5 ENE 1020,0 18 -
21.10.2018 10:00:00 15,1 14,0 9 5 ENE 1020,6 15 0,0
21.10.2018 09:00:00 14,1 13,3 5 3 NE 1020,4 10 0,0
21.10.2018 08:00:00 14,2 13,2 8 4 ENE 1019,8 11 -
21.10.2018 07:00:00 14,1 13,0 9 5 ENE 1019,8 14 0,0
21.10.2018 06:00:00 14,3 13,0 11 6 ENE 1019,3 16 0,0
21.10.2018 05:00:00 14,5 12,9 11 6 NE 1019,4 18 -
21.10.2018 04:00:00 14,6 13,0 13 7 ENE 1019,3 19 0,0
21.10.2018 03:00:00 14,6 13,0 13 7 ENE 1019,3 19 0,0
21.10.2018 02:00:00 14,6 13,0 9 5 NNE 1019,7 19 -
21.10.2018 01:00:00 15,6 13,1 13 7 ENE 1019,3 20 0,0
21.10.2018 00:00:00 15,9 13,0 15 8 E 1019,4 20 0,0
20.10.2018 23:00:00 16,6 13,1 15 8 ENE 1018,6 20 -
20.10.2018 22:00:00 17,1 13,2 18 10 ENE 1017,7 20 0,0
20.10.2018 21:00:00 17,5 13,4 16 9 E 1017,6 20 0,0
20.10.2018 20:00:00 17,8 13,5 18 10 ENE 1016,9 20 -
20.10.2018 19:00:00 17,9 14,0 13 7 ENE 1016,3 20 0,0
20.10.2018 18:00:00 18,1 12,8 13 7 E 1016,1 19 0,4
20.10.2018 17:00:00 19,3 14,5 8 4 NE 1015,4 20 -
20.10.2018 16:00:00 19,8 12,5 16 9 ENE 1015,9 18 0,0
20.10.2018 15:00:00 20,5 10,9 18 10 ENE 1015,9 20 0,0
20.10.2018 14:00:00 20,7 10,5 15 8 E 1016,4 20 -
20.10.2018 13:00:00 19,1 11,1 13 7 E 1017,1 20 0,0
20.10.2018 12:00:00 16,9 12,0 16 9 ENE 1017,4 20 0,0
20.10.2018 11:00:00 14,5 11,8 15 8 E 1017,6 20 -
20.10.2018 10:00:00 12,0 10,7 11 6 ENE 1017,9 19 0,0
20.10.2018 09:00:00 10,7 9,8 9 5 ENE 1017,9 19 0,0
20.10.2018 08:00:00 10,3 9,2 8 4 NE 1017,2 14 -
20.10.2018 07:00:00 10,2 9,1 9 5 ENE 1017,3 14 0,0
20.10.2018 06:00:00 10,3 9,2 9 5 NE 1017,1 13 0,0
20.10.2018 05:00:00 10,7 9,6 8 4 ENE 1017,0 13 -
20.10.2018 04:00:00 11,3 10,5 9 5 ENE 1016,7 11 0,0
20.10.2018 03:00:00 11,9 11,1 11 6 ENE 1016,4 11 0,0
20.10.2018 02:00:00 12,6 11,5 8 4 E 1016,0 15 -
20.10.2018 01:00:00 13,3 12,2 9 5 ENE 1015,8 17 0,0
20.10.2018 00:00:00 14,1 12,7 11 6 ENE 1015,6 20 0,0
19.10.2018 23:00:00 14,7 13,1 8 4 ENE 1015,2 20 -
19.10.2018 22:00:00 14,8 12,5 4 2 N 1014,8 20 0,0
19.10.2018 21:00:00 15,0 12,5 5 3 ENE 1014,3 20 0,0
19.10.2018 20:00:00 15,5 12,8 5 3 ENE 1013,3 20 -
19.10.2018 19:00:00 15,9 12,8 5 3 NE 1012,4 20 0,0
19.10.2018 18:00:00 16,3 12,8 15 8 ENE 1012,1 20 0,0
19.10.2018 17:00:00 16,3 13,2 11 6 NE 1012,1 20 -
19.10.2018 16:00:00 15,8 13,5 13 7 NE 1012,2 20 0,0
19.10.2018 15:00:00 15,6 13,8 11 6 NNE 1012,4 16 0,2
19.10.2018 14:00:00 16,1 12,5 11 6 ENE 1012,7 20 -
19.10.2018 13:00:00 15,6 12,0 11 6 ENE 1013,2 20 0,0
19.10.2018 12:00:00 14,8 11,6 15 8 ENE 1013,0 20 0,0
19.10.2018 11:00:00 12,9 11,3 9 5 NE 1013,0 12 -
19.10.2018 10:00:00 - - - - - - - -
19.10.2018 09:00:00 12,3 11,0 8 4 E 1012,3 15 0,0
19.10.2018 08:00:00 12,6 11,5 8 4 E 1011,0 25 -
19.10.2018 07:00:00 12,7 11,4 5 3 E 1011,2 14 0,0
19.10.2018 06:00:00 12,7 11,1 4 2 NE 1010,9 20 0,0
19.10.2018 05:00:00 12,9 11,3 5 3 E 1010,9 20 -
19.10.2018 04:00:00 12,8 11,2 4 2 ENE 1010,6 20 0,0
19.10.2018 03:00:00 12,9 11,3 4 2 NE 1010,6 20 0,0
19.10.2018 02:00:00 12,9 11,0 5 3 NE 1010,6 20 -
19.10.2018 01:00:00 13,3 10,1 5 3 NNE 1010,7 20 0,0
19.10.2018 00:00:00 13,8 9,0 5 3 E 1011,2 20 0,0
18.10.2018 23:00:00 14,3 9,1 5 3 NE 1011,2 20 -
18.10.2018 22:00:00 14,5 8,7 8 4 ENE 1010,6 20 0,0
18.10.2018 21:00:00 15,3 8,8 9 5 E 1009,7 20 0,0
18.10.2018 20:00:00 16,0 8,7 13 7 ENE 1009,1 25 -
18.10.2018 19:00:00 17,4 8,8 21 11 ENE 1007,9 20 0,0
18.10.2018 18:00:00 18,5 10,6 22 12 ENE 1006,7 20 0,0
18.10.2018 17:00:00 19,8 9,9 18 10 ENE 1006,2 20 -
18.10.2018 16:00:00 19,7 9,6 16 9 ENE 1006,3 20 0,0
18.10.2018 15:00:00 16,3 11,7 13 7 E 1007,7 14 4,0
18.10.2018 14:00:00 19,5 10,2 16 9 ENE 1007,6 25 -
18.10.2018 13:00:00 17,8 10,7 18 10 ENE 1008,5 20 0,0
18.10.2018 12:00:00 14,8 10,6 11 6 NE 1009,4 19 0,0
18.10.2018 11:00:00 13,1 9,7 9 5 ENE 1010,0 20 -
18.10.2018 10:00:00 12,4 9,2 11 6 NE 1009,9 20 0,0
18.10.2018 09:00:00 12,4 9,0 9 5 ENE 1009,8 20 0,0
18.10.2018 08:00:00 13,3 10,3 5 3 NE 1009,7 20 -
18.10.2018 07:00:00 13,9 11,8 9 5 NNW 1009,8 20 0,0

tt = Température de l'air
td = dewpoint
ff = Vitesse du vent
dd = Direction du vent
ppp = reduced air pressure
vv = visibility
rr = Quantités de précipitations

stations d'obs. à proximité